Starlink 5256

operational
NORAD ID: 54175 Int'l Des: 2022-141 Owner: SPXS Country: US Constellation: starlink
LEOCIRCULAR

About Starlink 5256

Description loading...

Live Position

Loading 3D Globe...

Upcoming Passes

Altitude History

Altitude vs Time

uPlot chart will show altitude changes over time

Two-Line Element Set

1 54175U 22141U 25351.46059891 -.00018458 00000-0 -11442-2 0 9992
2 54175 53.2167 13.2737 0001465 78.5229 281.5927 15.08854394173440
Epoch: Dec 17, 2025 • Age: 24 hours

Current Status

Altitude 543.3 km
Velocity 7.60 km/s
Sub-Earth Point 42.84°N, 113.8°W
Launch Date Oct 28, 2022
Age 3.1 years
Type internet

Technical Details

Classification Payload
Mass 305.00 kg
Dry Mass 290.00 kg
Total Mass 305.00 kg
Length 0.20 m
Diameter 2.80 m
Span 9.00 m
Shape Box + pan
Manufacturer SPXS
Bus Type Starlink
Phase Status In Orbit
Owner/State SPXS/US

Large Constellations

Loading constellations...